Watertown, NY

11:04 PM EST on December 10, 2019 (GMT -0500)
Watertown International

Weather History for KART - November, 2019

Change the Weather History Date:

Thursday, November 14, 2019

  Actual Average Record
Temperature  
Mean Temperature 30 °F 39 °F  
Max Temperature 38 °F 48 °F 68 °F (1994)
Min Temperature 21 °F 30 °F 13 °F (1996)
Degree Days  
Heating Degree Days 36 26  
Month to date heating degree days 450 334  
Since 1 July heating degree days 1091 1130  
Cooling Degree Days 0 0  
Month to date cooling degree days 0 0  
Year to date cooling degree days 348 362  
Moisture  
Dew Point 18 °F    
Average Humidity 62    
Maximum Humidity 78    
Minimum Humidity 46    
Precipitation  
Precipitation T in 0.12 in 0.90 in (1985)
Month to date precipitation 0.98 1.71  
Year to date precipitation 40.25 30.88  
Sea Level Pressure  
Sea Level Pressure 30.22 in    
Wind  
Wind Speed 8 mph ()    
Max Wind Speed 20 mph    
Max Gust Speed 26 mph    
Visibility 8.2 miles    
Events Snow    
T = Trace of Precipitation, MM = Missing Value Source: Averaged Metar Reports

Daily Weather History Graph

Daily Weather History Graph

Search for Another Location

Airport or City:

Astronomy

Nov. 14, 2019 Rise Set
Actual Time 6:57 AM EST 4:39 PM EST
Civil Twilight 6:26 AM EST 5:10 PM EST
Nautical Twilight 5:51 AM EST 5:44 PM EST
Astronomical Twilight 5:17 AM EST 6:18 PM EST
Moon 6:20 PM EST (11/14) 8:53 AM EST (11/14)
Length of Visible Light 10h 43m
Length of Day
9h 41m
Waning Gibbous, 95% of the Moon is Illuminated
Nov 14
Waning Gibbous
Nov 19
Last Quarter
Nov 26
New
Dec 4
First Quarter
Dec 12
Full

Hourly Weather History & Observations

Time (EST) Temp. Windchill Dew Point Humidity Pressure Visibility Wind Dir Wind Speed Gust Speed Precip Events Conditions
12:56 AM 21.9 °F 13.4 °F 7.0 °F 53% 30.35 in 10.0 mi SE 6.9 mph - N/A   Overcast
1:56 AM 23.0 °F 17.0 °F 8.1 °F 53% 30.33 in 10.0 mi SE 4.6 mph - N/A   Overcast
2:56 AM 24.1 °F 16.0 °F 8.1 °F 51% 30.28 in 10.0 mi SSE 6.9 mph - N/A   Overcast
3:56 AM 26.1 °F 16.2 °F 9.0 °F 49% 30.25 in 10.0 mi SSE 10.4 mph - N/A   Overcast
4:56 AM 27.0 °F 17.3 °F 10.9 °F 51% 30.23 in 10.0 mi South 10.4 mph 20.7 mph N/A   Overcast
5:56 AM 27.0 °F 18.0 °F 12.0 °F 53% 30.23 in 10.0 mi South 9.2 mph - N/A   Overcast
6:56 AM 28.0 °F 19.3 °F 12.9 °F 53% 30.23 in 10.0 mi South 9.2 mph 19.6 mph N/A   Overcast
7:56 AM 28.0 °F 18.1 °F 14.0 °F 56% 30.25 in 10.0 mi South 11.5 mph 19.6 mph N/A   Overcast
8:37 AM 27.0 °F 19.5 °F 19.0 °F 72% 30.23 in 3.0 mi Variable 6.9 mph 17.3 mph 0.00 in   Haze
8:51 AM 26.6 °F 15.7 °F 19.4 °F 74% 30.22 in 2.0 mi South 12.7 mph 20.7 mph 0.00 in Snow Light Snow
8:56 AM 26.1 °F 16.8 °F 19.9 °F 78% 30.25 in 3.0 mi South 9.2 mph 20.7 mph 0.00 in Snow Light Snow
9:37 AM 27.0 °F 15.6 °F 19.9 °F 75% 30.22 in 1.8 mi South 13.8 mph 19.6 mph 0.00 in Snow Light Snow
9:56 AM 27.0 °F 18.0 °F 21.0 °F 78% 30.25 in 1.5 mi South 9.2 mph - 0.00 in Snow Light Snow
10:01 AM 28.0 °F 18.6 °F 21.0 °F 75% 30.22 in 3.0 mi South 10.4 mph 19.6 mph 0.00 in   Haze
10:56 AM 30.0 °F 19.5 °F 19.9 °F 66% 30.24 in 10.0 mi South 13.8 mph 23.0 mph 0.00 in   Overcast
12:56 PM 34.0 °F 25.0 °F 19.9 °F 56% 30.19 in 10.0 mi South 12.7 mph 19.6 mph N/A   Overcast
1:56 PM 34.0 °F 26.6 °F 19.0 °F 54% 30.17 in 10.0 mi South 9.2 mph 18.4 mph N/A   Overcast
3:56 PM 34.0 °F 27.2 °F 19.0 °F 54% 30.17 in 10.0 mi South 8.1 mph - N/A   Overcast
4:56 PM 34.0 °F 26.6 °F 19.0 °F 54% 30.18 in 10.0 mi South 9.2 mph 17.3 mph N/A   Overcast
6:56 PM 35.1 °F 27.9 °F 19.9 °F 54% 30.19 in 10.0 mi South 9.2 mph 17.3 mph N/A   Overcast
7:56 PM 35.1 °F 27.9 °F 19.9 °F 54% 30.18 in 10.0 mi SSW 9.2 mph - 0.00 in   Overcast
8:56 PM 35.1 °F 27.9 °F 23.0 °F 61% 30.18 in 10.0 mi SSW 9.2 mph - 0.00 in   Overcast
9:56 PM 36.0 °F 29.0 °F 26.1 °F 67% 30.18 in 10.0 mi SSW 9.2 mph - 0.00 in   Overcast
10:56 PM 37.0 °F 27.7 °F 28.0 °F 70% 30.16 in 10.0 mi SW 16.1 mph 24.2 mph N/A   Overcast
11:27 PM 37.0 °F 27.7 °F 28.0 °F 70% 30.13 in 10.0 mi SW 16.1 mph - N/A   Overcast
11:56 PM 37.0 °F 28.5 °F 28.0 °F 70% 30.14 in 10.0 mi SW 13.8 mph 24.2 mph N/A   Overcast